QPF
0.00 0.00 0.00 0.00 0.00 0.00 0.00 0.00 0.00 0.00 0.00 0.00 0.00 0.00 0.00 0.00 0.00 0.00 0.00 0.00 0.00 0.00 0.00 0.00 0.00 0.00 0.00 0.00 0.00 0.00 0.00 0.00 0.00 0.00 0.00 0.00 0.00 0.00 0.00 0.00 0.00 0.00 0.00
0.00 0.00 0.00 0.00 0.00 0.00 0.00 0.00 0.00 0.00 0.00 0.00 0.00 0.00 0.00 0.00 0.00 0.00 0.00 0.00 0.00 0.00 0.00 0.00 0.00 0.00 0.00 0.00 0.00 0.00 0.00 0.00 0.00 0.00 0.00 0.00 0.00 0.00 0.00 0.00 0.00 0.00 0.00
0.00 0.00 0.00 0.00 0.00 0.00 0.00 0.00 0.00 0.00 0.00 0.00 0.00 0.00 0.00 0.00 0.00 0.00 0.00 0.00 0.00 0.00 0.00 0.00 0.00 0.00 0.00 0.00 0.00 0.00 0.00 0.00 0.00 0.00 0.00 0.00 0.00 0.00 0.00 0.00 0.00 0.00 0.00
0.00 0.00 0.00 0.00 0.00 0.00 0.00 0.00 0.00 0.00 0.00 0.00 0.00 0.01 0.01 0.01 0.00 0.00 0.00 0.00 0.00 0.00 0.00 0.00 0.00 0.00 0.00 0.00 0.00 0.00 0.00 0.00 0.00 0.00 0.00 0.00 0.00 0.00 0.00 0.00 0.00 0.00 0.00
0.00 0.00 0.00 0.00 0.00 0.00 0.00 0.00 0.00 0.00 0.00 0.00 0.02 0.05 0.05 0.01 0.00 0.00 0.00 0.00 0.00 0.00 0.00 0.00 0.00 0.00 0.00 0.00 0.00 0.00 0.00 0.00 0.00 0.00 0.00 0.00 0.00 0.00 0.00 0.00 0.00 0.00 0.00
0.00 0.00 0.00 0.00 0.00 0.00 0.00 0.00 0.00 0.00 0.00 0.01 0.03 0.02 0.03 0.03 0.02 0.00 0.00 0.00 0.00 0.00 0.00 0.00 0.00 0.00 0.00 0.00 0.00 0.00 0.00 0.00 0.00 0.00 0.00 0.00 0.00 0.00 0.00 0.00 0.00 0.00 0.00
0.00 0.00 0.00 0.00 0.00 0.00 0.00 0.00 0.00 0.00 0.00 0.02 0.03 0.02 0.05 0.05 0.03 0.00 0.00 0.00 0.00 0.00 0.00 0.00 0.00 0.00 0.00 0.00 0.00 0.00 0.00 0.00 0.00 0.00 0.00 0.00 0.00 0.00 0.00 0.00 0.00 0.00 0.00
0.00 0.00 0.00 0.00 0.00 0.00 0.00 0.00 0.00 0.00 0.01 0.02 0.01 0.04 0.05 0.02 0.00 0.00 0.00 0.00 0.00 0.00 0.00 0.00 0.00 0.00 0.00 0.00 0.00 0.00 0.00 0.00 0.00 0.00 0.00 0.00 0.00 0.00 0.00 0.00 0.00 0.00 0.00
0.00 0.00 0.00 0.00 0.00 0.00 0.00 0.00 0.00 0.00 0.00 0.00 0.00 0.01 0.11 0.05 0.01 0.00 0.00 0.00 0.00 0.00 0.00 0.00 0.00 0.00 0.00 0.00 0.00 0.00 0.00 0.00 0.00 0.00 0.00 0.00 0.00 0.00 0.00 0.00 0.00 0.00 0.00
0.00 0.00 0.00 0.00 0.00 0.00 0.00 0.00 0.00 0.00 0.00 0.00 0.00 0.00 0.00 0.00 0.00 0.00 0.00 0.00 0.00 0.00 0.00 0.00 0.00 0.00 0.00 0.00 0.00 0.00 0.00 0.00 0.00 0.00 0.00 0.00 0.00 0.00 0.00 0.00 0.00 0.00 0.00
0.00 0.00 0.00 0.00 0.00 0.00 0.00 0.00 0.00 0.00 0.00 0.00 0.00 0.00 0.04 0.01 0.00 0.00 0.00 0.00 0.00 0.00 0.00 0.00 0.00 0.00 0.00 0.00 0.00 0.00 0.00 0.00 0.00 0.00 0.00 0.00 0.00 0.00 0.00 0.00 0.00 0.00 0.00
0.00 0.00 0.00 0.00 0.00 0.00 0.00 0.00 0.00 0.00 0.00 0.00 0.00 0.00 0.01 0.01 0.00 0.00 0.00 0.00 0.00 0.00 0.00 0.00 0.00 0.00 0.00 0.00 0.00 0.00 0.00 0.00 0.00 0.00 0.00 0.00 0.00 0.00 0.00 0.00 0.00 0.00 0.00
0.00 0.00 0.00 0.00 0.00 0.00 0.00 0.00 0.00 0.00 0.00 0.00 0.00 0.00 0.00 0.00 0.00 0.00 0.00 0.00 0.00 0.00 0.00 0.00 0.00 0.00 0.00 0.00 0.00 0.00 0.00 0.00 0.00 0.00 0.00 0.00 0.00 0.00 0.00 0.00 0.00 0.00 0.00
0.00 0.00 0.00 0.00 0.00 0.00 0.00 0.00 0.00 0.00 0.00 0.00 0.00 0.00 0.00 0.00 0.00 0.00 0.00 0.00 0.00 0.00 0.00 0.00 0.00 0.00 0.00 0.00 0.00 0.00 0.00 0.00 0.00 0.00 0.00 0.00 0.00 0.00 0.00 0.00 0.00 0.00 0.00
0.00 0.00 0.00 0.00 0.00 0.00 0.00 0.00 0.00 0.00 0.00 0.00 0.00 0.00 0.00 0.00 0.00 0.00 0.00 0.00 0.00 0.00 0.00 0.00 0.00 0.00 0.00 0.00 0.00 0.00 0.00 0.00 0.00 0.00 0.00 0.00 0.00 0.00 0.00 0.00 0.00 0.00 0.00
0.00 0.00 0.00 0.00 0.00 0.00 0.00 0.00 0.00 0.00 0.00 0.00 0.00 0.00 0.00 0.00 0.00 0.00 0.00 0.00 0.00 0.00 0.00 0.00 0.00 0.00 0.00 0.00 0.00 0.00 0.00 0.00 0.00 0.00 0.00 0.00 0.00 0.00 0.00 0.00 0.00 0.00 0.00
0.00 0.00 0.00 0.00 0.00 0.00 0.00 0.00 0.00 0.00 0.00 0.00 0.00 0.00 0.00 0.00 0.00 0.00 0.00 0.00 0.00 0.00 0.00 0.00 0.00 0.00 0.00 0.00 0.00 0.00 0.00 0.00 0.00 0.00 0.00 0.00 0.00 0.00 0.00 0.00 0.00 0.00 0.00
0.00 0.00 0.00 0.00 0.00 0.00 0.00 0.00 0.00 0.00 0.00 0.00 0.00 0.00 0.00 0.00 0.00 0.00 0.00 0.00 0.00 0.00 0.00 0.00 0.00 0.00 0.00 0.00 0.00 0.00 0.00 0.00 0.00 0.00 0.00 0.00 0.00 0.00 0.00 0.00 0.00 0.00 0.00
0.00 0.00 0.00 0.00 0.00 0.00 0.00 0.00 0.00 0.00 0.00 0.00 0.00 0.00 0.00 0.00 0.00 0.00 0.00 0.00 0.00 0.00 0.00 0.00 0.00 0.00 0.00 0.00 0.00 0.00 0.00 0.00 0.00 0.00 0.00 0.00 0.00 0.00 0.00 0.00 0.00 0.00 0.00
0.00 0.00 0.00 0.00 0.00 0.00 0.00 0.00 0.00 0.00 0.00 0.00 0.00 0.00 0.00 0.00 0.00 0.00 0.00 0.00 0.00 0.00 0.00 0.00 0.00 0.00 0.00 0.00 0.00 0.00 0.00 0.00 0.00 0.00 0.00 0.00 0.00 0.00 0.00 0.00 0.00 0.00 0.00
0.00 0.00 0.00 0.00 0.00 0.00 0.00 0.00 0.00 0.00 0.00 0.00 0.00 0.00 0.00 0.00 0.00 0.00 0.00 0.00 0.00 0.00 0.00 0.00 0.00 0.00 0.00 0.00 0.00 0.00 0.00 0.00 0.00 0.00 0.00 0.00 0.00 0.00 0.00 0.00 0.00 0.00 0.00
0.00 0.00 0.00 0.00 0.00 0.00 0.00 0.00 0.00 0.00 0.00 0.00 0.00 0.00 0.00 0.00 0.00 0.00 0.00 0.00 0.00 0.00 0.00 0.00 0.00 0.00 0.00 0.00 0.00 0.00 0.00 0.00 0.00 0.00 0.00 0.00 0.00 0.00 0.00 0.00 0.00 0.00 0.00
0.00 0.00 0.00 0.00 0.00 0.00 0.00 0.00 0.00 0.00 0.00 0.00 0.00 0.00 0.00 0.00 0.00 0.00 0.00 0.00 0.00 0.00 0.00 0.00 0.00 0.00 0.00 0.00 0.00 0.00 0.00 0.00 0.00 0.00 0.00 0.00 0.00 0.00 0.00 0.00 0.00 0.00 0.00
0.00 0.00 0.00 0.00 0.00 0.00 0.00 0.00 0.00 0.00 0.00 0.00 0.00 0.00 0.00 0.00 0.00 0.00 0.00 0.00 0.00 0.00 0.00 0.00 0.00 0.00 0.00 0.00 0.00 0.00 0.00 0.00 0.00 0.00 0.00 0.00 0.00 0.00 0.00 0.00 0.00 0.00 0.00
0.00 0.01 0.00 0.00 0.00 0.00 0.00 0.00 0.00 0.00 0.00 0.00 0.00 0.00 0.00 0.00 0.00 0.00 0.00 0.00 0.00 0.00 0.00 0.00 0.00 0.00 0.00 0.00 0.00 0.00 0.00 0.00 0.00 0.00 0.00 0.00 0.00 0.00 0.00 0.00 0.00 0.00 0.00
0.09 0.08 0.05 0.06 0.05 0.06 0.02 0.02 0.00 0.00 0.00 0.00 0.00 0.00 0.00 0.00 0.00 0.00 0.00 0.00 0.00 0.00 0.00 0.00 0.00 0.00 0.00 0.00 0.00 0.00 0.00 0.00 0.00 0.00 0.00 0.00 0.00 0.00 0.00 0.00 0.00 0.00 0.00
MSLP
1010.76 1011.40 1012.10 1012.76 1013.24 1013.63 1013.77 1014.01 1014.16 1014.38 1014.57 1014.81 1015.00 1015.55 1016.14 1016.46 1016.77 1016.92 1017.03 1017.02 1017.16 1017.50 1017.66 1017.82 1017.93 1017.99 1017.65 1017.26 1017.08 1016.79 1016.59 1016.50 1016.15 1015.47 1015.31 1014.91 1014.98 1014.73 1014.44 1014.21 1013.78 1013.12 1012.29
1010.02 1010.71 1011.45 1012.06 1012.48 1012.74 1013.18 1013.40 1013.63 1013.93 1014.22 1014.49 1015.03 1015.50 1016.02 1016.44 1016.68 1016.78 1016.68 1016.85 1016.91 1017.19 1017.58 1017.94 1018.15 1018.01 1018.17 1017.85 1017.45 1017.42 1017.01 1017.05 1016.82 1016.07 1015.51 1015.10 1014.44 1014.49 1014.25 1013.84 1013.04 1012.53 1012.03
1009.27 1010.05 1010.63 1011.18 1011.65 1011.92 1012.28 1012.70 1012.94 1013.35 1013.74 1014.19 1014.87 1015.30 1015.83 1016.35 1016.56 1016.76 1016.88 1016.97 1017.07 1017.23 1017.65 1018.02 1018.25 1018.42 1018.37 1018.29 1018.19 1017.78 1017.30 1017.28 1016.90 1016.10 1015.58 1014.43 1014.30 1013.99 1014.12 1013.51 1012.93 1012.43 1011.60
1008.44 1009.22 1009.76 1010.26 1010.69 1011.02 1011.55 1011.85 1012.36 1012.88 1013.36 1014.18 1014.67 1015.15 1015.90 1016.44 1016.56 1016.87 1017.12 1017.27 1017.29 1017.42 1017.88 1018.28 1018.46 1018.59 1018.78 1018.91 1018.38 1018.02 1017.83 1017.75 1016.74 1016.11 1015.25 1014.62 1014.20 1014.06 1013.88 1013.26 1013.01 1012.33 1011.67
1007.55 1008.29 1008.78 1009.42 1009.86 1010.29 1010.71 1011.28 1011.95 1012.79 1013.40 1014.08 1014.64 1015.16 1015.70 1016.42 1016.27 1016.77 1017.02 1017.24 1017.28 1017.44 1017.89 1018.12 1018.51 1019.11 1019.31 1019.19 1018.84 1018.74 1018.47 1018.00 1017.37 1016.55 1015.85 1015.31 1015.00 1014.85 1014.58 1014.20 1013.62 1012.65 1011.88
1006.58 1007.33 1008.05 1008.66 1009.16 1009.68 1010.16 1010.78 1011.79 1012.67 1013.57 1014.33 1015.06 1015.06 1015.65 1015.86 1016.40 1016.90 1016.85 1016.95 1017.07 1017.38 1017.68 1017.96 1018.29 1018.64 1018.78 1018.95 1018.85 1018.76 1018.65 1018.31 1017.86 1017.32 1016.67 1016.23 1015.76 1015.64 1015.07 1014.91 1014.19 1013.31 1012.29
1005.82 1006.67 1007.28 1007.96 1008.57 1009.07 1009.61 1010.23 1011.47 1012.14 1011.49 1013.59 1015.36 1015.58 1015.59 1016.20 1016.77 1017.14 1017.21 1016.87 1016.93 1017.05 1017.45 1017.79 1017.88 1017.88 1018.53 1018.75 1018.62 1018.34 1017.75 1017.68 1017.50 1017.40 1017.15 1016.78 1016.52 1016.16 1015.79 1014.93 1014.24 1013.73 1012.61
1005.07 1005.79 1006.50 1007.20 1007.84 1008.45 1009.00 1009.60 1010.58 1011.70 1012.65 1013.41 1014.68 1015.15 1015.38 1016.18 1016.81 1017.32 1017.38 1017.02 1017.08 1017.32 1017.49 1017.78 1018.06 1018.26 1019.17 1019.11 1018.84 1018.02 1017.50 1017.10 1016.62 1017.02 1017.00 1016.74 1016.58 1015.95 1015.57 1014.89 1014.13 1013.13 1011.77
1003.89 1004.64 1005.43 1006.23 1006.98 1007.62 1008.19 1008.94 1010.02 1011.33 1012.40 1013.40 1014.30 1014.88 1015.12 1016.11 1016.80 1017.33 1017.33 1017.07 1016.98 1017.22 1017.50 1017.82 1018.27 1018.44 1019.16 1019.32 1018.78 1017.96 1017.51 1016.98 1016.67 1016.86 1016.79 1016.40 1015.83 1015.49 1015.19 1015.01 1013.92 1012.78 1011.67
1002.57 1003.34 1004.38 1005.23 1005.87 1006.50 1007.34 1008.25 1009.56 1010.86 1012.06 1012.93 1013.91 1014.55 1015.03 1015.80 1016.62 1017.02 1017.23 1016.16 1016.66 1016.69 1017.36 1017.92 1018.57 1018.88 1019.19 1019.28 1019.01 1018.31 1017.79 1017.46 1017.33 1016.57 1015.84 1014.68 1014.34 1014.55 1014.11 1014.50 1013.44 1012.60 1011.89
1001.70 1002.59 1003.34 1004.03 1004.74 1005.64 1006.70 1007.81 1009.38 1010.59 1011.55 1012.70 1013.65 1014.36 1014.89 1015.40 1016.34 1016.90 1017.02 1016.61 1015.83 1016.39 1016.07 1016.76 1017.60 1018.77 1019.02 1019.11 1018.99 1018.53 1018.25 1017.92 1017.04 1015.98 1014.48 1013.93 1013.66 1013.30 1013.06 1013.35 1013.44 1013.17 1012.28
1000.95 1001.71 1002.60 1003.45 1004.18 1005.18 1006.27 1007.73 1008.88 1010.07 1011.42 1012.51 1013.33 1013.95 1014.47 1015.19 1015.76 1016.57 1016.77 1016.81 1016.45 1015.91 1015.90 1016.24 1017.69 1018.28 1018.51 1018.66 1018.57 1018.28 1017.87 1017.40 1016.17 1015.01 1014.33 1014.01 1013.75 1013.45 1013.27 1013.09 1012.65 1012.24 1011.90
1000.18 1000.95 1001.86 1002.90 1003.77 1004.53 1005.93 1007.30 1008.61 1009.76 1010.89 1011.82 1012.36 1012.74 1013.39 1014.41 1015.37 1016.14 1016.64 1016.86 1016.73 1016.53 1015.97 1017.02 1017.57 1017.94 1017.88 1017.83 1017.84 1017.71 1017.46 1016.18 1015.72 1015.14 1014.67 1014.29 1014.05 1013.70 1013.28 1012.56 1012.25 1011.70 1011.02
999.65 1000.54 1001.53 1002.41 1003.40 1004.41 1005.82 1006.92 1007.97 1009.13 1009.75 1010.48 1011.06 1011.66 1012.23 1013.25 1014.37 1015.65 1016.30 1016.63 1016.79 1016.84 1016.87 1016.92 1017.20 1017.36 1017.30 1017.11 1017.01 1016.79 1016.55 1016.14 1016.03 1015.26 1014.92 1014.47 1013.99 1013.62 1013.14 1012.66 1011.92 1011.43 1010.83
998.92 999.82 1000.72 1001.77 1002.92 1004.38 1005.46 1006.41 1006.88 1007.96 1008.30 1009.02 1009.83 1010.41 1010.98 1011.91 1012.97 1014.26 1014.99 1015.50 1015.78 1015.82 1016.09 1016.04 1016.34 1015.96 1015.69 1015.63 1015.74 1015.87 1015.89 1015.83 1015.53 1015.37 1014.84 1014.43 1014.00 1013.66 1013.11 1012.78 1012.08 1011.54 1011.03
998.03 998.77 999.49 1000.44 1002.33 1003.82 1004.99 1006.79 1007.75 1007.10 1008.39 1008.80 1009.38 1009.77 1010.51 1011.27 1012.57 1013.97 1014.72 1015.14 1015.25 1015.57 1015.73 1015.20 1015.06 1015.09 1015.16 1015.27 1015.45 1015.51 1015.43 1015.52 1015.64 1015.52 1015.01 1014.67 1014.32 1013.93 1013.50 1012.78 1012.10 1011.58 1011.24
997.45 997.98 998.96 999.82 1001.64 1002.96 1003.71 1005.09 1007.08 1008.87 1008.52 1009.17 1009.64 1010.03 1010.25 1011.92 1012.74 1013.96 1014.81 1015.31 1015.62 1015.72 1015.36 1014.61 1014.61 1014.68 1014.89 1015.17 1015.40 1015.38 1015.34 1015.54 1015.93 1015.39 1015.15 1014.75 1014.39 1014.07 1013.44 1012.78 1012.31 1011.97 1011.59
997.29 997.81 998.60 999.21 1000.30 1001.92 1002.68 1004.05 1005.45 1007.00 1008.31 1009.94 1010.56 1010.87 1011.06 1012.29 1013.11 1013.95 1014.85 1015.50 1015.91 1015.87 1014.79 1014.06 1014.25 1014.56 1014.81 1015.03 1015.32 1015.44 1015.60 1015.61 1015.57 1015.58 1015.12 1014.87 1014.54 1014.20 1013.51 1013.00 1012.58 1012.29 1011.86
996.85 997.52 998.00 998.84 1000.00 1001.47 1002.29 1003.24 1004.52 1005.99 1007.25 1008.75 1010.29 1011.55 1012.20 1012.85 1013.64 1014.25 1014.75 1014.26 1014.24 1014.32 1014.13 1013.67 1014.03 1014.34 1014.67 1015.04 1015.42 1015.84 1016.11 1015.74 1015.91 1015.66 1015.17 1014.96 1014.69 1014.29 1013.61 1013.11 1012.72 1012.46 1011.94
995.99 996.87 997.60 998.19 999.73 1000.79 1001.62 1002.56 1003.57 1004.91 1005.81 1007.26 1008.76 1009.96 1011.54 1012.74 1013.54 1014.06 1014.30 1013.91 1013.15 1012.85 1012.77 1013.10 1013.81 1014.38 1014.70 1015.22 1015.50 1015.71 1015.63 1015.56 1015.45 1015.29 1015.30 1015.14 1014.77 1014.10 1013.61 1013.10 1012.72 1012.39 1011.99
995.29 996.58 997.03 997.59 998.61 999.65 1000.53 1001.41 1002.59 1003.80 1004.97 1006.44 1007.58 1008.69 1010.00 1010.78 1011.74 1012.40 1012.85 1012.82 1012.44 1012.27 1012.45 1012.95 1013.48 1014.21 1014.80 1015.31 1015.37 1015.43 1015.33 1015.24 1015.29 1015.46 1015.29 1015.07 1014.65 1014.17 1013.62 1013.21 1012.79 1012.62 1012.35
995.66 996.31 996.91 997.35 998.06 998.63 1000.07 1001.08 1002.21 1003.33 1004.39 1005.47 1006.63 1008.58 1009.97 1009.81 1010.19 1010.69 1011.28 1011.52 1011.70 1012.07 1012.46 1012.93 1013.19 1013.72 1013.95 1014.38 1015.05 1015.17 1015.20 1015.15 1015.50 1015.58 1015.48 1014.90 1014.44 1014.25 1013.66 1013.37 1013.06 1012.87 1012.72
995.55 996.39 996.76 997.33 997.96 998.76 999.95 1000.61 1001.56 1002.58 1003.63 1004.59 1005.45 1007.53 1009.01 1009.12 1008.81 1009.39 1009.96 1010.32 1011.00 1011.60 1012.02 1012.76 1012.93 1013.53 1014.13 1014.85 1015.12 1015.30 1015.01 1015.43 1015.82 1015.96 1015.68 1015.05 1014.58 1014.55 1013.86 1013.69 1013.43 1013.28 1013.11
995.93 996.59 996.92 997.40 998.10 998.91 999.41 1000.14 1001.01 1002.19 1002.85 1003.69 1004.44 1006.16 1007.40 1007.81 1007.44 1008.08 1008.89 1009.74 1010.60 1011.33 1011.81 1012.49 1012.69 1013.10 1013.95 1014.32 1015.00 1015.38 1015.53 1016.27 1016.34 1015.80 1015.85 1015.39 1015.11 1014.78 1014.35 1014.06 1013.70 1013.39 1013.41
996.33 996.78 996.92 997.61 998.52 998.84 999.32 1000.03 1000.72 1001.69 1002.28 1002.79 1003.63 1005.18 1006.29 1006.86 1006.67 1007.46 1008.58 1009.31 1010.31 1011.04 1011.81 1012.37 1012.87 1013.62 1014.48 1014.71 1014.74 1015.46 1016.94 1017.40 1017.38 1017.57 1016.85 1015.57 1015.29 1015.46 1014.88 1014.29 1014.28 1013.73 1013.29
997.00 997.23 997.63 998.33 999.31 999.68 999.92 1000.07 1000.64 1001.13 1001.81 1002.37 1002.98 1004.35 1005.41 1005.86 1006.10 1007.02 1008.18 1008.92 1009.89 1010.66 1011.51 1012.27 1013.01 1013.97 1014.74 1015.12 1015.60 1016.90 1016.95 1017.35 1017.33 1017.56 1017.41 1016.31 1015.74 1015.73 1015.60 1014.92 1014.59 1014.25 1013.68
Thickness
5838 5835 5830 5825 5823 5820 5818 5816 5815 5813 5810 5806 5803 5795 5787 5781 5775 5769 5763 5758 5751 5743 5738 5731 5725 5719 5715 5711 5705 5698 5690 5681 5670 5670 5666 5662 5651 5647 5645 5641 5639 5639 5639
5844 5840 5834 5830 5828 5825 5821 5821 5819 5815 5813 5809 5801 5794 5787 5780 5774 5769 5764 5758 5751 5742 5734 5727 5719 5715 5706 5702 5697 5687 5681 5671 5661 5655 5654 5650 5649 5644 5641 5637 5639 5637 5636
5849 5842 5839 5835 5832 5829 5828 5825 5824 5819 5814 5809 5801 5794 5786 5779 5773 5767 5762 5754 5747 5740 5731 5723 5715 5707 5700 5693 5685 5678 5673 5664 5657 5653 5646 5652 5645 5642 5635 5635 5633 5631 5631
5854 5847 5843 5839 5837 5835 5832 5831 5827 5822 5816 5807 5801 5793 5784 5777 5771 5764 5757 5749 5743 5736 5727 5717 5710 5702 5693 5683 5678 5671 5663 5654 5654 5648 5647 5643 5640 5636 5632 5629 5624 5626 5625
5858 5852 5849 5845 5843 5840 5837 5834 5830 5822 5816 5809 5800 5792 5784 5774 5772 5762 5755 5747 5740 5733 5723 5716 5707 5693 5683 5676 5669 5660 5653 5647 5643 5639 5635 5631 5626 5621 5617 5616 5614 5616 5616
5863 5857 5854 5849 5845 5842 5840 5836 5828 5818 5808 5801 5792 5790 5780 5777 5766 5758 5755 5747 5738 5730 5720 5713 5705 5693 5685 5673 5664 5655 5646 5639 5632 5627 5623 5618 5616 5611 5609 5605 5604 5602 5601
5866 5861 5857 5852 5847 5845 5842 5838 5823 5815 5816 5803 5784 5782 5779 5771 5759 5753 5747 5745 5736 5729 5720 5710 5704 5698 5684 5673 5663 5655 5649 5639 5630 5622 5614 5609 5605 5603 5599 5598 5596 5592 5593
5870 5865 5861 5857 5852 5849 5845 5839 5829 5818 5808 5800 5788 5783 5778 5768 5756 5745 5740 5740 5732 5724 5716 5707 5698 5689 5672 5664 5656 5654 5648 5641 5636 5624 5615 5610 5603 5601 5597 5594 5592 5592 5597
5875 5871 5868 5864 5857 5853 5848 5842 5832 5819 5808 5799 5789 5783 5777 5764 5753 5745 5739 5736 5729 5721 5712 5702 5693 5683 5667 5657 5653 5649 5643 5636 5628 5618 5613 5608 5605 5600 5595 5587 5586 5587 5587
5884 5880 5876 5871 5865 5859 5853 5845 5833 5821 5809 5800 5789 5782 5775 5764 5752 5744 5736 5741 5728 5722 5710 5698 5683 5674 5663 5653 5646 5642 5635 5627 5617 5616 5616 5618 5614 5604 5601 5588 5588 5584 5581
5892 5887 5882 5878 5871 5864 5855 5846 5831 5819 5809 5797 5787 5779 5771 5763 5752 5740 5734 5733 5733 5719 5715 5703 5689 5669 5659 5649 5639 5635 5627 5617 5615 5617 5621 5617 5610 5605 5599 5587 5579 5572 5570
5895 5890 5884 5878 5872 5863 5854 5841 5831 5819 5805 5793 5783 5775 5769 5760 5752 5739 5733 5726 5723 5720 5712 5703 5682 5669 5659 5648 5639 5631 5624 5617 5620 5619 5617 5610 5603 5598 5592 5586 5580 5575 5568
5895 5890 5885 5878 5872 5865 5850 5838 5827 5818 5805 5794 5786 5779 5772 5761 5750 5739 5730 5722 5716 5712 5710 5689 5677 5666 5659 5650 5638 5630 5622 5625 5618 5612 5607 5602 5597 5592 5588 5585 5578 5573 5569
5892 5886 5882 5875 5868 5860 5848 5840 5830 5817 5810 5801 5791 5782 5776 5765 5754 5740 5730 5722 5712 5705 5696 5688 5678 5668 5658 5651 5642 5634 5627 5620 5609 5606 5601 5597 5593 5587 5582 5579 5575 5570 5564
5893 5888 5881 5875 5866 5853 5846 5839 5834 5823 5819 5808 5798 5789 5780 5768 5760 5747 5737 5728 5719 5711 5700 5693 5681 5675 5669 5660 5648 5637 5627 5616 5609 5602 5597 5591 5586 5581 5577 5571 5567 5562 5555
5891 5888 5885 5878 5864 5851 5842 5828 5816 5821 5806 5805 5797 5791 5782 5771 5754 5740 5730 5722 5715 5706 5698 5693 5685 5676 5665 5655 5643 5633 5624 5613 5603 5595 5590 5584 5577 5573 5567 5564 5560 5554 5547
5889 5887 5881 5875 5861 5849 5845 5833 5815 5797 5798 5791 5785 5778 5774 5756 5745 5733 5723 5714 5705 5698 5694 5692 5682 5673 5662 5650 5638 5628 5618 5607 5595 5591 5584 5579 5572 5566 5562 5558 5552 5545 5538
5884 5878 5876 5871 5862 5850 5845 5834 5821 5809 5798 5783 5771 5765 5755 5743 5734 5725 5714 5705 5698 5689 5693 5690 5679 5669 5658 5646 5634 5623 5611 5602 5593 5583 5579 5573 5567 5560 5556 5550 5543 5535 5529
5877 5874 5873 5866 5858 5845 5838 5830 5819 5807 5796 5783 5767 5751 5738 5729 5721 5714 5707 5710 5704 5696 5690 5687 5675 5665 5654 5641 5628 5614 5602 5595 5584 5578 5573 5567 5560 5555 5550 5545 5537 5527 5521
5875 5869 5866 5861 5849 5838 5832 5824 5815 5804 5796 5785 5770 5758 5737 5724 5719 5712 5704 5703 5704 5700 5694 5684 5671 5658 5647 5634 5622 5610 5601 5592 5584 5576 5568 5561 5555 5552 5545 5539 5533 5525 5516
5869 5862 5859 5852 5843 5836 5830 5822 5813 5802 5790 5779 5769 5759 5740 5733 5723 5715 5706 5702 5700 5696 5689 5678 5667 5653 5640 5626 5617 5607 5598 5589 5580 5570 5564 5557 5551 5545 5541 5534 5527 5518 5509
5855 5851 5847 5844 5841 5835 5824 5816 5805 5795 5785 5775 5765 5749 5726 5730 5726 5719 5709 5704 5698 5690 5681 5671 5662 5650 5640 5627 5613 5603 5593 5584 5573 5565 5558 5555 5550 5542 5537 5528 5521 5512 5502
5845 5838 5837 5834 5830 5823 5814 5807 5799 5790 5780 5772 5763 5745 5727 5724 5727 5719 5711 5705 5696 5687 5678 5666 5657 5644 5630 5616 5605 5595 5589 5577 5566 5556 5551 5549 5544 5535 5532 5522 5514 5505 5495
5829 5824 5822 5820 5818 5811 5805 5798 5791 5780 5775 5767 5759 5745 5730 5724 5726 5720 5711 5702 5692 5682 5673 5661 5651 5641 5626 5614 5599 5587 5577 5564 5556 5553 5545 5542 5536 5530 5524 5518 5510 5502 5490
5812 5810 5811 5807 5801 5798 5793 5786 5780 5773 5767 5762 5753 5741 5728 5721 5721 5715 5704 5696 5684 5675 5664 5654 5643 5629 5614 5604 5596 5582 5565 5554 5545 5539 5533 5537 5532 5522 5518 5514 5504 5497 5491
5796 5795 5790 5786 5778 5774 5774 5771 5767 5763 5757 5752 5745 5734 5723 5717 5715 5707 5696 5688 5677 5668 5657 5645 5634 5619 5605 5594 5583 5569 5561 5550 5540 5536 5529 5527 5524 5518 5510 5507 5501 5491 5486